Showing default

OPS 1117 (TRANSIT 12), 2119

Orbit data source: Space-Track

OPS 1117 (TRANSIT 12), 2119 is a payload satellite owned by USN BuWeps (US) in LEO that was launched on Sat, 26 Mar 1966 UTC via an SCOUT A launch vehicle from the Air Force Western Test Range (AFWTR). Payload-class satellites include a variety of spacecraft equipped with specific instruments for various scientific and technological missions. These include communications satellites like Starlink; space stations such as the ISS; scientific satellites like the Hubble; Earth observation satellites from companies like Planet Labs, Umbra, and HawkEye 360; GPS; miniature CubeSats for education and research; and military/defense satellites.

Loading next visibility...
Identifier
2119, 1966-024A
Orbit
LEO
Country
Flag of USUS
Related business
Manufacturer
APL
Mission
Spacecraft
Bus & Motor
TRANSIT 5, Unknown motor
Mass
51 kg wet, 51 kg dry
Launch date (UTC)
1966-03-26 (60 years ago)
Launch vehicle
SCOUT A
Launch site
Air Force Western Test Range (AFWTR)
Object type
Payload
Rocket body
Debris
Shape & HBR
Unknown
Radar Cross Section
Large (>1 m²)

Expand to show TLE details & history
Last TLE update: 8 hours ago

TLE from 8 hours ago
0 OPS 1117 (TRANSIT 12)
1  2119U 66024A   25354.81115204  .00000171  00000-0  15455-3 0  9994
2  2119  89.6101  95.9043 0145286 224.0567 134.8949 13.75346102990662
Epoch: 2025-12-20T19:28Z
TLE epoch observation values (Epoch: 2025-12-20T19:28:03.536Z)
Latitude
0.00003°
Longitude
74.25697°
Altitude
1,059.671 km
Speed
7.284 km/s
True Right ascension
06h 23m 37s
True Declination
0° 00' 00"
Sunlit
Object was in full shadow at epoch
Visualization orbit readout
Latitude
Unknown
Longitude
Unknown
Altitude
Unknown
Speed
Unknown
Apparent Right ascension
Unknown
Apparent Declination
Unknown
Sunlit
N/A
Visualization observer readout
Local Sidereal Time
02:00:03
Azimuth
Unknown
Elevation
Unknown
Doppler factor
Unknown
Orbital elements
Apogee altitude
1,084.319 km
Perigee altitude
870.586 km
Semi-major axis
7,355.589 km
Eccentricity
0.01453
Inclination
89.6101°
RAAN
95.9043°
Arg. of periapsis
224.0567°
True anomaly
136.05927°
Mean anomaly
134.8949°
Eccentric anomaly
135.47858°
Mean motion
3.44046 °/min
Orbital period
104.64 mins
BSTAR
0.00015455
Loading maneuver chart data...
Computing Atmospheric mass density...
Loading historical data...
Loading historical data...
Loading historical data...
Loading historical data...
Loading historical data...
Loading historical data...
Loading historical data...

Documentation

Showing up to 5 results
|